Flag for United Arab Emirates Weather past 2 weeks in Sharjah, Sharjah, United Arab Emirates

Now
82 °F

Sunny.


Feels Like: 81 °F
Forecast: 72 / 92 °F
Wind: 9 mph from Northwest

Location: Sharjah International Airport

Current Time: Mar 30, 2015 at 6:12:43 PM

Latest Report: Mar 30, 2015 at 6:00 PM


Visibility: 10 mi

Pressure: 29.80 "Hg

Humidity: 37%

Dew point: 54 °F

Location of SharjahLocation

Historic Weather in Sharjah — Graph

°F

Sharjah temperature yesterday

Maximum temperature yesterday: 84 °F (at 12:00 PM)
Minimum temperature yesterday: 61 °F (at 5:00 AM)
Average temperature yesterday: 74 °F

Past Weeks' High & Low Weather Summary

 TemperatureHumidityPressure
High95 °F (Mar 21, 3:00 PM)94% (Mar 24, 7:00 AM)30.09 "Hg (Mar 24, 7:00 AM)
Low61 °F (Mar 29, 5:00 AM)15% (Mar 21, 3:00 PM)29.77 "Hg (Mar 30, 4:00 PM)
Average77 °F54%29.96 "Hg
* Reported Mar 15 5:00 PM — Mar 30 5:00 PM, Sharjah, Weather by CustomWeather, © 2015

Note: Actual official high and low records may vary slightly from our data, if they occured in-between our weather recording intervals... More about our weather records

Advertising

Sharjah weather history for previous 24 hours

 ConditionsComfort  
Time TempWeatherWind HumidityBarometerVisibility
5:00 PM
Mon, Mar 30
84 °FSunny.12 mph40%29.80 "Hg10 mi
4:00 PM86 °FSunny.9 mph31%29.77 "Hg10 mi
3:00 PM88 °FSunny.10 mph24%29.80 "Hg10 mi
2:00 PM90 °FSunny.2 mph22%29.83 "Hg10 mi
1:00 PM90 °FSunny.3 mph22%29.86 "Hg10 mi
12:00 PM86 °FPassing clouds.3 mph29%29.89 "HgN/A
11:00 AM81 °FWarm.3 mph54%29.92 "Hg5 mi
10:00 AM77 °FClear.3 mph65%29.95 "Hg5 mi
9:00 AM68 °FFog.6 mph94%29.92 "Hg0 mi
8:00 AM68 °FFog.6 mph78%29.92 "Hg1 mi
7:00 AM63 °FHaze.5 mph88%29.89 "Hg2 mi
6:00 AM66 °FHaze.3 mph83%29.86 "Hg3 mi
5:00 AM64 °FClear.2 mph83%29.86 "Hg4 mi
4:00 AM63 °FClear.2 mph83%29.83 "Hg4 mi
3:00 AM64 °FClear.2 mph83%29.83 "Hg4 mi
2:00 AM64 °FClear.2 mph83%29.86 "Hg4 mi
1:00 AM64 °FClear.No wind83%29.86 "Hg5 mi
12:00 AM73 °FClear.5 mph69%29.86 "Hg10 mi
11:00 PM
Sun, Mar 29
72 °FClear.3 mph69%29.89 "Hg10 mi
10:00 PM73 °FClear.No wind69%29.89 "Hg10 mi
9:00 PM73 °FClear.3 mph69%29.89 "Hg10 mi
8:00 PM75 °FClear.7 mph65%29.89 "Hg10 mi
7:00 PM77 °FClear.5 mph61%29.86 "Hg10 mi
6:00 PM79 °FSunny.9 mph54%29.86 "Hg10 mi
Weather by CustomWeather, © 2015

See weather overviewHow to use our weather pages